Terug naar catalogus

STARLINK-3352

ActiefCommunicatieVLEO
NORAD 51147·PAYLOAD·🇺🇸 United States

Gelanceerd Jan 19, 2022 vanaf Cape Canaveral Space Force Station

Loading…

Volgende Passages (komende 24 uur)

TLE

VersSource: CelesTrak SupGP

Epoch: Sep 14, 2026, 21:36 UTC

1 51147C 22005AV  26257.90048611 -.00000211  00000+0 -56977-5 0  2579
2 51147  53.1857 137.0779 0003770 124.7012  53.7844 15.37129211    11

Volg STARLINK-3352 in realtime met AllMySat

Download on the App Store